Lid_Strength_Index
0 -0 -1 -1 -1 -2 -2 -2 -2 -2 -2 -2 -2 -2 -1 -1 -1 -0 0 1 2 2 3 4 6 6 5
-1 1 1 -0 -1 -1 -1 -1 -1 -1 -2 -2 -1 -2 -1 -1 0 1 1 2 2 4 5 6 7 7 6
-1 -0 1 0 0 0 0 0 1 -2 -1 -1 -0 -1 -1 -0 1 1 2 3 4 5 6 8 7 7 7
-1 -1 -1 -1 -1 -1 -1 -1 -1 -1 -0 0 1 -0 -1 0 2 2 3 6 8 7 8 9 8 8 8
-1 -1 -1 -1 -1 -1 -1 -1 -1 0 1 1 1 1 1 2 3 4 6 7 7 7 8 8 8 8 8
-1 -1 -1 -1 -1 -1 -1 -1 0 1 1 2 1 1 2 3 4 6 7 7 8 9 9 9 9 8 8
-0 -1 -1 -0 -1 -1 -1 -0 1 1 2 3 2 2 3 4 6 8 8 8 9 9 9 9 9 9 9
-0 -0 -0 -1 -1 -1 -0 1 1 2 3 4 3 4 5 6 8 8 8 9 9 9 10 10 10 9 9
0 -0 -0 -0 -1 -0 0 1 2 3 4 5 5 5 6 8 8 8 9 9 10 10 10 10 10 9 9
0 -0 -0 -0 0 0 1 1 3 4 5 5 6 7 8 9 9 9 10 10 10 10 10 10 10 10 10
1 0 0 1 1 1 1 2 3 4 5 6 6 7 9 9 9 10 10 10 10 10 11 10 10 10 10
2 1 1 1 2 2 2 2 3 5 6 7 7 7 9 9 10 10 10 10 10 10 12 11 11 10 10
3 3 3 3 3 3 2 3 4 5 6 7 8 8 9 9 9 10 10 11 12 11 10 11 11 11 11
4 4 3 4 3 3 3 4 5 5 6 7 7 8 10 10 10 10 11 12 11 11 10 10 12 12 12
6 5 5 7 6 6 5 6 6 6 7 7 8 8 10 10 11 11 11 11 12 12 11 9 12 11 12
7 7 7 8 9 8 8 7 7 7 7 8 8 9 9 10 11 11 11 10 10 12 12 12 11 10 12